Location: Elkol
(41.7238°N, 110.6124°W)
Time: 21:11:51
(UTC+00:00)

BlueWalker 3 - Pass Details

Date: 10 December 2022
Orbit: 499 x 517 km, 53.2° (Epoch: 04 February)

Event Time Altitude Azimuth Distance (km) Brightness Sun altitude
Rises 01:05:14 0° 310° (NW) 2,627 6.0 -13.3°
Reaches altitude 10° 01:07:30 10° 317° (NW) 1,735 5.0 -13.7°
Maximum altitude 01:11:18 46° 32° (NNE) 691 2.3 -14.3°
Enters shadow 01:13:11 25° 92° (E) 1,049 3.0 -14.7°
Exits shadow 01:43:40 -58° 126° (SE) 11,372 8.8 -20.2°
